Tracking 19832 objects as of 24-Aug-2019
HD Live streaming from Space Station
objects crossing your sky now

FENGYUN 1C DEB

Track FENGYUN 1C DEB now!
10-day predictions


NORAD ID: 36672
Int'l Code: 1999-025DYS
Perigee: 565.6 km
Apogee: 620.4 km
Inclination: 99.0 °
Period: 96.4 minutes
Semi major axis: 6963 km
RCS: 0.0094 m2 (small)
Launch date: May 10, 1999
Source: People's Republic of China (PRC)
Launch site: Taiyaun Space Center, China (TSC)

Note: This is SATELLITE DEBRIS
aabbcc
Your satellite tracking list
Your tracking list is empty




NASA's NSSDC Master Catalog

Two Line Element Set (TLE):
1 36672U 99025DYS 19235.35394251 +.00003013 +00000-0 +28615-3 0  9993
2 36672 098.9697 292.0553 0039337 062.7071 297.8143 14.93882643232614
Source of the keplerian elements: AFSPC